TimeEEST,TemperatureF,Dew PointF,Humidity,Sea Level PressureIn,VisibilityMPH,Wind Direction,Wind SpeedMPH,Gust SpeedMPH,PrecipitationIn,Events,Conditions,WindDirDegrees,DateUTC
12:50 AM,68.0,62.6,83,30.01,6.2,Calm,Calm,-,N/A,,Partly Cloudy,0,2012-10-13 21:50:00
1:50 AM,68.0,66.2,94,30.01,6.2,Calm,Calm,-,N/A,,Scattered Clouds,0,2012-10-13 22:50:00
2:50 AM,69.8,66.2,88,29.98,6.2,Calm,Calm,-,N/A,,Scattered Clouds,0,2012-10-13 23:50:00
3:50 AM,69.8,64.4,83,29.98,6.2,Variable,2.3,-,N/A,,Scattered Clouds,0,2012-10-14 00:50:00
4:20 AM,69.8,66.2,88,29.98,6.2,Calm,Calm,-,N/A,,Scattered Clouds,0,2012-10-14 01:20:00
5:20 AM,69.8,64.4,83,29.98,6.2,Calm,Calm,-,N/A,,Scattered Clouds,0,2012-10-14 02:20:00
5:50 AM,69.8,64.4,83,29.98,6.2,Calm,Calm,-,N/A,,Scattered Clouds,0,2012-10-14 02:50:00
6:20 AM,69.8,64.4,83,29.98,6.2,Calm,Calm,-,N/A,,Partly Cloudy,0,2012-10-14 03:20:00
6:50 AM,69.8,62.6,78,29.98,6.2,Variable,3.5,-,N/A,,Partly Cloudy,0,2012-10-14 03:50:00
7:20 AM,69.8,62.6,78,29.98,6.2,SE,5.8,-,N/A,,Partly Cloudy,130,2012-10-14 04:20:00
7:50 AM,68.0,62.6,83,29.98,6.2,SSE,6.9,-,N/A,,Scattered Clouds,160,2012-10-14 04:50:00
8:20 AM,69.8,62.6,78,29.98,6.2,SE,4.6,-,N/A,,Mostly Cloudy,140,2012-10-14 05:20:00
8:50 AM,69.8,62.6,78,29.98,6.2,SE,6.9,-,N/A,,Mostly Cloudy,140,2012-10-14 05:50:00
9:00 AM,70,62,69,30.00,6,SE,6.9,,,,Mostly Cloudy,140,2012-10-14 06:00:00
9:20 AM,69.8,62.6,78,29.98,6.2,SE,8.1,-,N/A,,Mostly Cloudy,140,2012-10-14 06:20:00
9:50 AM,71.6,62.6,73,30.01,6.2,SE,9.2,-,N/A,,Mostly Cloudy,130,2012-10-14 06:50:00
10:20 AM,71.6,62.6,73,30.01,6.2,SE,8.1,-,N/A,,Scattered Clouds,140,2012-10-14 07:20:00
10:50 AM,73.4,62.6,69,30.01,6.2,ESE,9.2,-,N/A,,Partly Cloudy,120,2012-10-14 07:50:00
11:20 AM,73.4,62.6,69,29.98,6.2,ESE,9.2,-,N/A,,Scattered Clouds,120,2012-10-14 08:20:00
11:50 AM,75.2,62.6,65,29.98,6.2,SE,6.9,-,N/A,,Scattered Clouds,130,2012-10-14 08:50:00
12:20 PM,75.2,62.6,65,29.98,6.2,SSE,11.5,-,N/A,,Partly Cloudy,150,2012-10-14 09:20:00
12:50 PM,78.8,62.6,57,29.98,6.2,SSE,6.9,-,N/A,,Partly Cloudy,150,2012-10-14 09:50:00
1:20 PM,78.8,62.6,57,29.98,6.2,SE,8.1,-,N/A,,Scattered Clouds,140,2012-10-14 10:20:00
1:50 PM,78.8,62.6,57,29.98,6.2,South,8.1,-,N/A,,Scattered Clouds,180,2012-10-14 10:50:00
2:20 PM,80.6,62.6,54,29.98,6.2,SSW,6.9,-,N/A,,Scattered Clouds,200,2012-10-14 11:20:00
2:50 PM,80.6,62.6,54,29.95,6.2,SSE,8.1,-,N/A,,Scattered Clouds,160,2012-10-14 11:50:00
3:00 PM,81,63,45,29.97,9,SSE,8.1,,,,Partly Cloudy,160,2012-10-14 12:00:00
3:20 PM,80.6,62.6,54,29.95,6.2,SSE,9.2,-,N/A,,Partly Cloudy,160,2012-10-14 12:20:00
3:50 PM,80.6,64.4,58,29.95,6.2,SSE,6.9,-,N/A,,Partly Cloudy,150,2012-10-14 12:50:00
4:20 PM,80.6,64.4,58,29.95,6.2,SSE,6.9,-,N/A,,Partly Cloudy,160,2012-10-14 13:20:00
4:50 PM,80.6,64.4,58,29.95,6.2,South,5.8,-,N/A,,Partly Cloudy,170,2012-10-14 13:50:00
5:20 PM,80.6,64.4,58,29.95,6.2,SSE,5.8,-,N/A,,Partly Cloudy,160,2012-10-14 14:20:00
5:50 PM,78.8,64.4,61,29.95,6.2,Calm,Calm,-,N/A,,Partly Cloudy,0,2012-10-14 14:50:00
6:20 PM,77.0,64.4,65,29.95,6.2,Calm,Calm,-,N/A,,Partly Cloudy,0,2012-10-14 15:20:00
6:50 PM,75.2,64.4,69,29.95,6.2,Variable,2.3,-,N/A,,Partly Cloudy,0,2012-10-14 15:50:00
7:20 PM,75.2,64.4,69,29.95,6.2,Variable,2.3,-,N/A,,Partly Cloudy,0,2012-10-14 16:20:00
7:50 PM,75.2,62.6,65,29.95,6.2,Variable,3.5,-,N/A,,Partly Cloudy,0,2012-10-14 16:50:00
8:20 PM,75.2,62.6,65,29.95,6.2,Calm,Calm,-,N/A,,Partly Cloudy,0,2012-10-14 17:20:00
8:50 PM,73.4,64.4,73,29.95,6.2,Calm,Calm,-,N/A,,Partly Cloudy,0,2012-10-14 17:50:00
9:00 PM,74,65,65,29.97,9,Calm,Calm,,,,Scattered Clouds,,2012-10-14 18:00:00
9:20 PM,73.4,64.4,73,29.95,6.2,Calm,Calm,-,N/A,,Partly Cloudy,0,2012-10-14 18:20:00
9:50 PM,71.6,64.4,78,29.98,6.2,Calm,Calm,-,N/A,,Partly Cloudy,0,2012-10-14 18:50:00
10:20 PM,71.6,64.4,78,29.98,-9999.0,Calm,Calm,-,N/A,,Clear,0,2012-10-14 19:20:00
10:50 PM,71.6,64.4,78,29.98,-9999.0,Calm,Calm,-,N/A,,Clear,0,2012-10-14 19:50:00
11:20 PM,71.6,64.4,78,29.98,-9999.0,Calm,Calm,-,N/A,,Clear,0,2012-10-14 20:20:00
11:50 PM,71.6,64.4,78,29.98,-9999.0,Calm,Calm,-,N/A,,Clear,0,2012-10-14 20:50:00